Hourly Weather Roundup
Issued by NWS Central Illinois

Home | Current Version | Previous Version | Text Only | Print | Product List | Glossary On
Versions: 1 2 3 4 5 6 7 8 9 10 11 12 13 14 15 16 17 18 19 20 21 22 23 24 25 26 27 28 29 30 31 32 33 34 35 36 37 38 39 40 41 42 43 44 45 46 47 48 49 50
000
NZUS43 KILX 252210
HWRILX

AREA WEATHER ROUNDUP
NATIONAL WEATHER SERVICE, LINCOLN IL
400 PM CST SUN JAN 25 2015


CITY           SKY/WX    TMP DP  RH WIND       PRES   REMARKS
BLOOMINGTON    LGT SNOW  32  30  93 NE25G33   29.78R FOG     WCI  19
CHAMPAIGN      LGT SNOW  35  32  88 NE18G28   29.71R FOG     WCI  24
DECATUR        MIX PCPN  35  34  96 NE23G33   29.72R FOG     WCI  23
FLORA          CLOUDY    40  40  99 N3        29.64R FOG
GALESBURG      CLOUDY    29  25  84 N23G30    29.88R WCI  15
JACKSONVILLE   CLOUDY    37  34  89 N15       29.78R FOG     WCI  27
LACON          LGT SNOW  28  24  85 N13G25    29.86R WCI  17
LAWRENCEVILLE  CLOUDY    41  40  96 NE3       29.63R FOG
LITCHFIELD     CLOUDY    35  33  92 N17G26    29.71R FOG     WCI  24
$$


CITY           SKY/WX    TMP DP  RH WIND       PRES   REMARKS
LINCOLN        CLOUDY    35  32  88 N23G31    29.78R WCI  23
MACOMB         CLOUDY    30  28  90 N26       29.89R WCI  16
MATTOON        MIX PCPN  37  35  92 N14       29.66R FOG     WCI  28
MT CARMEL AP   RAIN      43  39  87 CALM      29.62R
OLNEY-NOBLE AP CLOUDY    39  39 100 CALM      29.63R FOG
PARIS          LGT RAIN  36  36  99 NE10G18   29.67R WCI  28
PEORIA         MIX PCPN  31  26  82 N16G23    29.83R WCI  20
PONTIAC        MIX PCPN  32  31  96 N25G32    29.82R WCI  19
RANTOUL        CLOUDY    35  32  91 NE23G29   29.73R WCI  23
ROBINSON       DRIZZLE   39  39  98 NE3       29.64R
SPRINGFIELD    CLOUDY    36  33  89 N20       29.76R WCI  25
TAYLORVILLE    CLOUDY    34  32  93 N21G30    29.73R FOG     WCI  22
$$

...REGIONAL REPORTS...


CITY           SKY/WX    TMP DP  RH WIND       PRES   REMARKS
CHICAGO O`HARE CLOUDY    26  18  71 NE21G30   29.89R WCI  12
KANKAKEE       LGT SNOW  30  28  92 N18G28    29.82R WCI  18
MOLINE         CLOUDY    29  20  69 NE16      29.91R WCI  17
MOUNT VERNON   CLOUDY    43  39  87 CALM      29.63R
PITTSFIELD     FLURRIES  35  32  90 N16G22    29.80R WCI  25
QUINCY         MIX PCPN  31  29  92 N22G29    29.84R FOG     WCI  18
ROCKFORD       MOCLDY    26  13  57 NE18G28   29.94R WCI  13
$$


CITY           SKY/WX    TMP DP  RH WIND       PRES   REMARKS
BURLINGTON     CLOUDY    30  27  88 N18       29.89R WCI  18
CEDAR RAPIDS   PTSUNNY   28  21  75 NE15      29.95R WCI  16
DES MOINES     CLOUDY    35  28  75 N13       30.00R WCI  26
KIRKSVILLE     CLOUDY    31  29  92 N16G29    29.92R WCI  20
OTTUMWA        CLOUDY    30  26  85 N14       29.96R WCI  19
ST LOUIS       LGT RAIN  40  36  86 N18G24    29.72R FOG     WCI  31
$$


CITY           SKY/WX    TMP DP  RH WIND       PRES   REMARKS
TERRE HAUTE    LGT RAIN  39  37  92 N5        29.65R FOG
EVANSVILLE     LGT RAIN  43  40  89 S8        29.62R FOG
INDIANAPOLIS   DRIZZLE   33  33 100 NE14      29.66R FOG     WCI  23
LAFAYETTE      LGT SNOW  29  27  92 NE18G24   29.74R FOG     WCI  16
MADISON        PTCLDY    24  13  62 N16       29.98R WCI  11
MILWAUKEE      MOCLDY    25  13  60 NE18G25   29.96R WCI  11
$$




USA.gov is the U.S. government's official web portal to all federal, state and local government web resources and services.